Regional Weather Roundup
Issued by NWS

Home | Current Version | Previous Version | Graphics & Text | Print | Product List | Glossary On
Versions: 1 2 3 4 5 6 7 8 9 10 11 12 13 14 15 16 17 18 19 20 21 22 23 24 25 26 27 28 29 30 31 32 33 34 35 36 37 38 39 40 41 42 43 44 45 46 47 48 49 50
000
ASUS44 KMEG 211000
RWRTN
TENNESSEE HOURLY STATE WEATHER ROUNDUP
NATIONAL WEATHER SERVICE MEMPHIS TN
500 AM CDT TUE OCT 21 2014

TNZ002-004-019-021-049-052-054-088>092-211100-
WEST TENNESSEE

CITY           SKY/WX    TMP DP  RH WIND       PRES   REMARKS
MEMPHIS INTL   CLEAR     54  52  93 CALM      30.03R
NWS MEMPHIS      N/A     51 N/A N/A MISG        N/A
JACKSON        CLEAR     49  46  90 CALM      30.04R
DYERSBURG        N/A     50  39  66 CALM      30.06R VSB 3/4
UNION CITY     MOCLDY    46  46 100 CALM      30.03R VSB 3/4
PARIS          MOCLDY    43  43 100 CALM      30.03S VSB 1/4
LEXINGTON      CLEAR     45  45 100 CALM      30.02R
SAVANNAH       CLEAR     45  45 100 CALM      30.03S
$$

TNZ008-025-027-028-033-062-065-066-211100-
NORTH MIDDLE TENNESSEE

CITY           SKY/WX    TMP DP  RH WIND       PRES   REMARKS
NASHVILLE      CLEAR     48  47  96 CALM      30.02R
CLARKSVILLE    CLEAR     49  48  97 W3        30.02R FOG
SMYRNA         CLEAR     43  43 100 CALM      30.03R FOG
COOKEVILLE       N/A     41  41 100 CALM      30.00R VSB 1
CROSSVILLE     FAIR      50  46  86 SW3       30.01S
$$

TNZ061-075-076-078-094-096-097-211100-
SOUTH MIDDLE TENNESSEE

CITY           SKY/WX    TMP DP  RH WIND       PRES   REMARKS
MCMINNVILLE    CLEAR     46  46 100 CALM      30.02R
SHELBYVILLE    CLEAR     45  45 100 CALM      30.03R
$$

TNZ017-018-042-046-047-211100-
NORTHEAST TENNESSEE

CITY           SKY/WX    TMP DP  RH WIND       PRES   REMARKS
TRI CITIES     MOCLDY    48  47  96 CALM      29.97F FOG
ELIZABETHTON   CLOUDY    52  48  87 CALM      29.98S
$$

TNZ012-013-036-069-073-074-211100-
CENTRAL EAST TENNESSEE

CITY           SKY/WX    TMP DP  RH WIND       PRES   REMARKS
KNOXVILLE      PTCLDY    52  48  86 SW8       29.98S
OAK RIDGE      PTCLDY    52  48  86 CALM      30.00S
GATLINBURG     CLOUDY    48  46  93 CALM      29.98S
MORRISTOWN     PTSUNNY   55  50  82 CALM      29.99S
$$

TNZ083-085-099-211100-
SOUTHEAST TENNESSEE

CITY           SKY/WX    TMP DP  RH WIND       PRES   REMARKS
CHATTANOOGA    CLEAR     49  47  93 SE3       30.02R
$$

SKY/WX REPORTED AS FAIR MEANS FEW OR NO CLOUDS BELOW
12 THOUSAND FEET.



USA.gov is the U.S. government's official web portal to all federal, state and local government web resources and services.